EW0624 Weather Reports


Display with metric or nautical units.
time (UTC)temp
F
wind
direction
speed
MPH
gust
MPH
rain 1hr
in
rain 24hr
in
rain mn
in
humidity
%
barometer
mb
20260831121404 70 124 3.0 12.0 0.00 0.00 0.00 71 1021.8
20260831115904 71 49 3.0 10.0 0.00 0.00 0.00 71 1021.9
20260831115404 71 28 4.0 9.0 0.00 0.00 0.00 71 1021.9
20260831114404 70 130 4.0 8.0 0.00 0.00 0.00 71 1021.9
20260831113903 69 126 3.0 7.0 0.00 0.00 0.00 71 1021.9
20260831113404 69 73 3.0 7.0 0.00 0.00 0.00 71 1022.0
20260831112904 70 67 5.0 10.0 0.00 0.00 0.00 71 1022.0
20260831112404 70 113 3.0 9.0 0.00 0.00 0.00 72 1022.0
20260831111904 70 106 6.0 12.0 0.00 0.00 0.00 72 1022.1
20260831111404 69 78 2.0 9.0 0.00 0.00 0.00 73 1022.1
20260831110904 70 5 4.0 10.0 0.00 0.00 0.00 73 1022.2
20260831110404 69 38 0.0 2.0 0.00 0.00 0.00 73 1022.2
20260831104904 68 44 2.0 6.0 0.00 0.00 0.00 75 1022.3
20260831103904 68 280 0.0 2.0 0.00 0.00 0.00 76 1022.3
20260831103405 67 224 2.0 7.0 0.00 0.00 0.00 76 1022.3
20260831102404 67 284 1.0 3.0 0.00 0.00 0.00 79 1022.4
20260831101904 66 301 0.0 3.0 0.00 0.00 0.00 80 1022.4
20260831101404 66 300 2.0 5.0 0.00 0.00 0.00 80 1022.5
20260831100404 66 20 5.0 8.0 0.00 0.00 0.00 79 1022.5
20260831095904 66 345 5.0 9.0 0.00 0.00 0.00 81 1022.4
20260831095404 66 341 4.0 8.0 0.00 0.00 0.00 81 1022.4
20260831094404 66 259 1.0 3.0 0.00 0.00 0.00 82 1022.3
20260831093904 66 258 0.0 2.0 0.00 0.00 0.00 82 1022.3
20260831093404 66 258 2.0 3.0 0.00 0.00 0.00 82 1022.3
20260831092904 66 292 1.0 7.0 0.00 0.00 0.00 81 1022.3
20260831092404 66 269 2.0 3.0 0.00 0.00 0.00 81 1022.2
20260831091404 66 295 0.0 3.0 0.00 0.00 0.00 82 1022.1
20260831090904 66 296 0.0 3.0 0.00 0.00 0.00 81 1022.1
20260831090404 66 296 0.0 3.0 0.00 0.00 0.00 82 1022.1
20260831085404 66 186 0.0 0.0 0.00 0.00 0.00 87 1022.1
20260831084904 66 186 0.0 0.0 0.00 0.00 0.00 89 1022.1
20260831084404 65 186 0.0 0.0 0.00 0.00 0.00 91 1022.1
20260831083904 65 186 0.0 2.0 0.00 0.00 0.00 93 1022.1
20260831083404 64 186 0.0 0.0 0.00 0.00 0.00 95 1022.0
20260831082904 63 186 0.0 1.0 0.00 0.00 0.00 95 1021.9
20260831082404 63 186 0.0 2.0 0.00 0.00 0.00 95 1022.0
20260831081904 62 186 0.0 5.0 0.00 0.00 0.00 96 1022.0
20260831081404 62 182 0.0 3.0 0.00 0.00 0.00 97 1022.0
20260831080904 62 178 0.0 1.0 0.00 0.00 0.00 97 1022.0
20260831075904 61 178 0.0 2.0 0.00 0.00 0.00 98 1022.0
20260831075404 61 173 0.0 3.0 0.00 0.00 0.00 98 1022.0
20260831074904 60 173 0.0 1.0 0.00 0.00 0.00 98 1022.0
20260831074404 60 173 1.0 5.0 0.00 0.00 0.00 98 1022.0
20260831073906 60 172 3.0 6.0 0.00 0.00 0.00 98 1022.0
20260831073403 60 161 2.0 3.0 0.00 0.00 0.00 98 1021.9
20260831072904 59 203 2.0 5.0 0.00 0.00 0.00 98 1021.9
20260831072404 59 215 4.0 6.0 0.00 0.00 0.00 98 1021.8
20260831071904 59 180 3.0 3.0 0.00 0.00 0.00 99 1021.8
20260831070905 59 181 5.0 7.0 0.00 0.00 0.00 98 1021.9
20260831065404 59 179 1.0 3.0 0.00 0.00 0.00 98 1021.8
20260831064904 59 226 0.0 2.0 0.00 0.00 0.00 98 1021.7
20260831064404 59 257 0.0 1.0 0.00 0.01 0.00 98 1021.7
20260831063404 59 257 1.0 3.0 0.00 0.02 0.00 98 1021.7
20260831062904 59 246 1.0 3.0 0.00 0.02 0.00 98 1021.7
20260831062403 59 249 1.0 3.0 0.00 0.02 0.00 98 1021.6
20260831061904 59 228 1.0 2.0 0.00 0.02 0.00 98 1021.6
20260831061404 59 206 1.0 3.0 0.00 0.02 0.00 98 1021.5
20260831060904 59 194 1.0 3.0 0.00 0.02 0.00 98 1021.4
20260831060403 59 196 2.0 3.0 0.00 0.02 0.00 98 1021.4
20260831055904 59 173 2.0 5.0 0.00 0.02 0.00 98 1021.4
20260831055404 60 173 2.0 6.0 0.00 0.02 0.00 98 1021.3
20260831054904 60 176 1.0 3.0 0.00 0.02 0.00 98 1021.2
20260831054404 60 178 0.0 0.0 0.00 0.02 0.00 98 1021.1
20260831052904 59 177 0.0 1.0 0.00 0.02 0.00 98 1021.1
20260831052404 59 177 0.0 0.0 0.00 0.02 0.00 98 1021.0
20260831051904 59 177 1.0 3.0 0.00 0.02 0.00 98 1021.0
20260831051404 59 177 2.0 3.0 0.00 0.02 0.00 98 1021.0
20260831050904 59 177 0.0 0.0 0.00 0.02 0.00 98 1020.9
20260831045904 59 178 1.0 3.0 0.00 0.02 0.00 98 1020.9
20260831045404 60 178 1.0 3.0 0.00 0.02 0.00 98 1020.9
20260831044904 60 178 1.0 3.0 0.00 0.03 0.00 98 1020.9
20260831044404 60 179 0.0 0.0 0.00 0.03 0.00 98 1020.9
20260831043904 60 178 0.0 2.0 0.00 0.06 0.00 98 1020.8
20260831042904 60 179 1.0 2.0 0.00 0.07 0.00 98 1020.8
20260831042405 60 180 0.0 0.0 0.00 0.08 0.00 98 1020.8
20260831041904 60 179 0.0 1.0 0.00 0.08 0.00 97 1020.8
20260831040904 60 180 0.0 3.0 0.00 0.09 0.00 97 1020.9
20260831040404 60 179 1.0 3.0 0.00 0.10 0.00 97 1020.8
20260831035904 60 180 2.0 3.0 0.00 0.11 0.00 97 1020.8
20260831035404 60 179 2.0 5.0 0.00 0.11 0.00 97 1020.8
20260831034904 60 184 2.0 3.0 0.00 0.11 0.00 97 1020.9
20260831034404 61 184 3.0 5.0 0.00 0.11 0.00 96 1020.9
20260831033904 61 187 3.0 5.0 0.00 0.11 0.00 96 1020.8
20260831033404 61 200 1.0 3.0 0.00 0.11 0.00 96 1020.8
20260831032904 61 213 1.0 3.0 0.00 0.11 0.00 96 1020.8
20260831032404 61 248 0.0 0.0 0.00 0.11 0.00 96 1020.8
20260831031904 61 248 0.0 0.0 0.00 0.11 0.00 95 1020.8
20260831031404 61 248 0.0 3.0 0.00 0.11 0.00 95 1020.8
20260831030904 62 248 0.0 2.0 0.00 0.11 0.00 95 1020.7
20260831030404 62 248 0.0 2.0 0.00 0.11 0.00 95 1020.7
20260831025904 62 231 0.0 3.0 0.00 0.11 0.00 95 1020.7
20260831025404 62 211 0.0 0.0 0.00 0.11 0.00 95 1020.6
20260831024904 62 211 0.0 0.0 0.00 0.11 0.00 94 1020.6
20260831024404 62 211 0.0 0.0 0.00 0.11 0.00 94 1020.6
20260831023904 62 211 0.0 0.0 0.00 0.11 0.00 94 1020.6
20260831023404 62 211 0.0 0.0 0.00 0.11 0.00 94 1020.6
20260831022404 62 211 0.0 2.0 0.00 0.11 0.00 94 1020.6
20260831021903 62 211 0.0 0.0 0.00 0.11 0.00 94 1020.6
20260831021404 62 211 0.0 0.0 0.00 0.11 0.00 94 1020.6
20260831020904 62 210 0.0 0.0 0.00 0.11 0.00 93 1020.6
20260831020404 62 210 1.0 3.0 0.00 0.11 0.00 93 1020.5
20260831015904 62 188 0.0 0.0 0.00 0.11 0.00 93 1020.6
20260831015404 62 188 0.0 0.0 0.00 0.11 0.00 93 1020.5
20260831013907 63 186 0.0 1.0 0.00 0.11 0.00 92 1020.6
20260831012908 63 186 1.0 3.0 0.00 0.11 0.00 91 1020.6
20260831012404 63 186 1.0 3.0 0.00 0.11 0.00 91 1020.6
20260831010904 63 288 1.0 3.0 0.00 0.11 0.00 91 1020.7
20260831010404 63 38 0.0 0.0 0.00 0.11 0.00 91 1020.7
20260831005904 63 37 0.0 0.0 0.00 0.11 0.00 91 1020.7
20260831004904 64 37 0.0 0.0 0.00 0.11 0.00 91 1020.8
20260831004404 64 37 0.0 1.0 0.00 0.11 0.00 91 1020.8
20260831003904 64 37 0.0 1.0 0.00 0.11 0.00 91 1020.9
20260831001404 64 37 0.0 0.0 0.00 0.11 0.00 90 1020.9
20260831000404 64 37 0.0 0.0 0.00 0.11 0.00 90 1021.0
20260830235904 64 37 0.0 0.0 0.00 0.11 0.00 90 1021.0
20260830235404 64 36 0.0 0.0 0.00 0.11 0.00 90 1021.0
20260830234904 64 36 0.0 0.0 0.00 0.11 0.00 90 1021.0
20260830234403 64 36 0.0 0.0 0.00 0.11 0.00 90 1021.1
20260830233903 64 36 0.0 3.0 0.00 0.11 0.00 90 1021.1
20260830233404 64 36 0.0 2.0 0.00 0.11 0.00 90 1021.1
20260830232904 64 36 0.0 2.0 0.00 0.11 0.00 90 1021.1
20260830232404 64 36 1.0 3.0 0.00 0.11 0.00 89 1021.1
20260830231904 64 82 0.0 3.0 0.00 0.11 0.00 90 1021.1
20260830230404 64 82 1.0 3.0 0.00 0.11 0.00 90 1021.2
20260830225904 64 82 2.0 3.0 0.00 0.11 0.00 90 1021.1
20260830225404 64 80 2.0 3.0 0.00 0.11 0.00 90 1021.1
20260830224904 64 69 1.0 3.0 0.00 0.11 0.00 90 1021.1
20260830224404 64 69 0.0 2.0 0.00 0.11 0.00 90 1021.1
20260830223904 64 62 2.0 3.0 0.00 0.11 0.00 90 1021.1
20260830223404 64 62 1.0 3.0 0.00 0.11 0.00 90 1021.0
20260830222904 64 62 1.0 3.0 0.00 0.11 0.00 90 1021.0
20260830221904 64 114 0.0 2.0 0.00 0.11 0.00 90 1021.0
20260830221404 64 115 1.0 3.0 0.00 0.11 0.00 90 1020.9
20260830220404 64 119 1.0 3.0 0.00 0.11 0.00 90 1020.8
20260830214904 64 133 0.0 3.0 0.00 0.11 0.11 90 1020.7
20260830214404 64 119 2.0 3.0 0.00 0.11 0.11 90 1020.7
20260830213904 64 113 1.0 3.0 0.00 0.11 0.11 90 1020.7
20260830213404 64 115 1.0 3.0 0.00 0.11 0.11 90 1020.6
20260830212904 64 115 0.0 2.0 0.00 0.11 0.11 90 1020.6
20260830212404 64 115 1.0 2.0 0.00 0.11 0.11 90 1020.5
20260830211904 64 117 1.0 3.0 0.00 0.11 0.11 90 1020.5
20260830211404 64 119 1.0 3.0 0.00 0.11 0.11 89 1020.5
20260830210904 64 120 3.0 6.0 0.00 0.11 0.11 89 1020.5
20260830210403 64 102 3.0 6.0 0.00 0.11 0.11 89 1020.4
20260830205905 64 107 1.0 3.0 0.00 0.11 0.11 89 1020.4
20260830205404 64 95 2.0 6.0 0.00 0.11 0.11 89 1020.3
20260830204904 64 61 3.0 3.0 0.00 0.11 0.11 89 1020.3
20260830204404 64 75 3.0 5.0 0.00 0.11 0.11 89 1020.2
20260830203904 65 40 2.0 6.0 0.00 0.11 0.11 89 1020.2
20260830202904 65 42 2.0 7.0 0.00 0.11 0.11 89 1020.1
20260830202404 65 47 2.0 5.0 0.00 0.11 0.11 88 1020.0
20260830201904 65 51 2.0 6.0 0.00 0.11 0.11 88 1019.9
20260830200904 65 73 2.0 5.0 0.00 0.11 0.11 88 1019.9
20260830200404 65 73 3.0 9.0 0.00 0.11 0.11 88 1019.8
20260830195904 65 59 5.0 10.0 0.00 0.11 0.11 87 1019.7
20260830195404 65 68 5.0 10.0 0.00 0.11 0.11 87 1019.6
20260830193904 65 39 3.0 9.0 0.00 0.11 0.11 87 1019.3
20260830193404 65 44 5.0 9.0 0.00 0.11 0.11 87 1019.2
20260830192904 65 43 8.0 12.0 0.00 0.11 0.11 86 1019.1
20260830192404 65 19 5.0 12.0 0.00 0.11 0.11 86 1019.0
20260830191903 66 25 7.0 12.0 0.00 0.11 0.11 86 1018.9
20260830191405 66 32 6.0 12.0 0.00 0.11 0.11 85 1018.8
20260830190904 66 26 6.0 12.0 0.00 0.11 0.11 85 1018.8
20260830190404 66 42 9.0 12.0 0.00 0.11 0.11 85 1018.8
20260830185904 66 53 6.0 12.0 0.00 0.11 0.11 84 1018.7
20260830185404 66 38 7.0 14.0 0.00 0.11 0.11 84 1018.7
20260830184404 67 49 6.0 14.0 0.00 0.11 0.11 83 1018.6
20260830183404 68 33 6.0 12.0 0.00 0.11 0.11 82 1018.5
20260830182904 68 37 7.0 13.0 0.00 0.11 0.11 81 1018.5
20260830182404 68 20 5.0 13.0 0.00 0.11 0.11 82 1018.5
20260830181404 68 54 7.0 12.0 0.00 0.11 0.11 81 1018.4
20260830180904 68 39 3.0 12.0 0.00 0.11 0.11 82 1018.4
20260830180404 68 16 6.0 13.0 0.00 0.11 0.11 81 1018.4
20260830175904 68 24 7.0 12.0 0.00 0.11 0.11 81 1018.3
20260830175404 69 19 5.0 12.0 0.00 0.11 0.11 81 1018.4
20260830174904 69 39 6.0 14.0 0.00 0.11 0.11 80 1018.4
20260830174404 69 27 7.0 12.0 0.00 0.11 0.11 80 1018.4
20260830173404 69 50 9.0 12.0 0.00 0.11 0.11 79 1018.2
20260830172904 69 51 7.0 13.0 0.00 0.11 0.11 79 1018.2
20260830172404 70 55 9.0 14.0 0.00 0.11 0.11 78 1018.2
20260830171904 70 66 5.0 14.0 0.00 0.11 0.11 77 1018.1
20260830171404 70 38 5.0 12.0 0.00 0.11 0.11 77 1018.1
20260830170404 71 24 7.0 12.0 0.00 0.11 0.11 75 1018.0
20260830165905 71 17 5.0 10.0 0.00 0.11 0.11 75 1017.9
20260830165404 71 352 2.0 10.0 0.00 0.11 0.11 76 1017.9
20260830164904 71 14 6.0 10.0 0.00 0.11 0.11 75 1017.9
20260830164404 71 34 6.0 10.0 0.00 0.11 0.11 75 1017.9
20260830163904 71 16 7.0 12.0 0.00 0.11 0.11 75 1017.9
20260830163404 71 346 6.0 12.0 0.00 0.11 0.11 75 1017.7
20260830162904 71 354 5.0 12.0 0.00 0.11 0.11 75 1017.7
20260830161404 71 24 7.0 12.0 0.00 0.11 0.11 75 1017.6
20260830160404 72 1 6.0 14.0 0.00 0.11 0.11 74 1017.5
20260830155904 72 350 5.0 12.0 0.00 0.11 0.11 74 1017.5
20260830155404 72 6 9.0 13.0 0.00 0.11 0.11 72 1017.5
20260830154904 72 17 9.0 14.0 0.00 0.11 0.11 73 1017.4
20260830154404 72 340 5.0 12.0 0.00 0.11 0.11 74 1017.4
20260830153904 72 40 7.0 12.0 0.00 0.11 0.11 73 1017.4
20260830153403 72 19 9.0 18.0 0.00 0.11 0.11 72 1017.4
20260830152904 72 10 7.0 13.0 0.00 0.11 0.11 72 1017.3
20260830152404 72 1 9.0 14.0 0.00 0.11 0.11 72 1017.3
20260830151404 73 27 10.0 16.0 0.00 0.11 0.11 70 1017.3
20260830150904 73 31 6.0 13.0 0.00 0.11 0.11 70 1017.2
20260830150404 73 10 6.0 12.0 0.00 0.11 0.11 71 1017.2
20260830145904 73 21 6.0 12.0 0.00 0.11 0.11 71 1017.2
20260830145404 73 47 9.0 13.0 0.00 0.11 0.11 71 1017.2
20260830143904 73 22 5.0 12.0 0.00 0.11 0.11 72 1017.1
20260830142904 73 21 6.0 13.0 0.00 0.11 0.11 73 1017.2
20260830142404 73 35 4.0 12.0 0.00 0.11 0.11 74 1017.1
20260830141904 72 18 6.0 12.0 0.00 0.11 0.11 74 1017.1
20260830141404 72 35 4.0 10.0 0.00 0.11 0.11 74 1017.1
20260830140904 72 47 2.0 7.0 0.00 0.11 0.11 75 1017.1
20260830135904 72 74 3.0 10.0 0.00 0.11 0.11 76 1017.2
20260830135404 71 50 4.0 12.0 0.00 0.11 0.11 76 1017.3
20260830134904 71 56 7.0 14.0 0.00 0.11 0.11 76 1017.3
20260830134404 72 4 6.0 12.0 0.00 0.11 0.11 76 1017.3
20260830133904 72 23 6.0 12.0 0.00 0.11 0.11 75 1017.3
20260830133404 72 44 3.0 12.0 0.00 0.11 0.11 77 1017.3
20260830132904 71 67 5.0 9.0 0.00 0.11 0.11 77 1017.4
20260830132404 71 37 3.0 8.0 0.00 0.11 0.11 78 1017.4
20260830131903 71 18 3.0 10.0 0.00 0.11 0.11 77 1017.4
20260830130404 71 15 10.0 15.0 0.00 0.11 0.11 78 1017.4
20260830125904 71 67 4.0 12.0 0.00 0.11 0.11 79 1017.4
20260830125404 71 68 9.0 13.0 0.00 0.11 0.11 78 1017.5
20260830124904 71 51 5.0 12.0 0.00 0.11 0.11 79 1017.4
20260830124404 71 43 9.0 12.0 0.00 0.11 0.11 79 1017.5
20260830123904 71 61 6.0 14.0 0.00 0.11 0.11 78 1017.5
20260830123404 71 85 3.0 10.0 0.00 0.11 0.11 79 1017.5
20260830122904 70 76 3.0 7.0 0.00 0.11 0.11 79 1017.5
20260830122404 70 118 2.0 10.0 0.00 0.11 0.11 80 1017.4